{"data":{"norad_id":64426,"epoch":"2026-09-20T12:05:39.566688Z","epoch_age_seconds":134034,"freshness":"FRESH","line1":"1 64426U 25129Q   26263.50393017  .00011721  00000+0  41165-3 0  9999","line2":"2 64426  69.9995 301.0598 0004001 270.3320  89.7397 15.29569837 70464","mean_motion":15.29569837,"eccentricity":0.0004001,"inclination_deg":69.9995,"raan_deg":301.0598,"arg_perigee_deg":270.332,"mean_anomaly_deg":89.7397,"bstar":0.00041165,"rev_number":7046,"period_min":94.144115892369,"perigee_km":474.35448926893,"apogee_km":479.84004773059,"semimajor_km":6855.2342684998,"source":"CELESTRAK","updated_at":"2026-09-21T09:00:35.348746Z"}}